Carson City, NV

3:10 PM PDT on May 22, 2018 (GMT -0700)
Carson

Weather History for KCXP - February, 2014

Change the Weather History Date:

Friday, February 28, 2014

  Actual Average Record
Temperature  
Mean Temperature 38 °F -  
Max Temperature 44 °F 55 °F 64 °F (2016)
Min Temperature 32 °F 27 °F 12 °F (2018)
Degree Days  
Heating Degree Days 27    
Moisture  
Dew Point 33 °F    
Average Humidity 84    
Maximum Humidity 100    
Minimum Humidity 65    
Precipitation  
Precipitation 0.00 in - - ()
Sea Level Pressure  
Sea Level Pressure 29.56 in    
Wind  
Wind Speed 3 mph (SE)    
Max Wind Speed 14 mph    
Max Gust Speed 20 mph    
Visibility 9 miles    
Events Rain , Snow    
Averages and records for this station are not official NWS values.
T = Trace of Precipitation, MM = Missing Value Source: NWS Daily Summary

Daily Weather History Graph

Daily Weather History Graph

Search for Another Location

Airport or City:

Astronomy

Feb. 28, 2014 Rise Set
Actual Time 6:32 AM PST 5:50 PM PST
Civil Twilight 6:06 AM PST 6:17 PM PST
Nautical Twilight 5:35 AM PST 6:48 PM PST
Astronomical Twilight 5:04 AM PST 7:19 PM PST
Moon 5:50 AM PST (2/28) 5:33 PM PST (2/28)
Length of Visible Light 12h 11m
Length of Day
11h 17m
Waning Crescent, 0% of the Moon is Illuminated
Feb 28
Waning Crescent
Mar 1
New
Mar 8
First Quarter
Mar 16
Full
Mar 23
Last Quarter

Hourly Weather History & Observations

Time (PST) Temp. Windchill Dew Point Humidity Pressure Visibility Wind Dir Wind Speed Gust Speed Precip Events Conditions
12:15 AM 37.4 °F 34.9 °F 26.6 °F 65% 29.76 in 10.0 mi NW 3.5 mph - N/A   Partly Cloudy
12:35 AM 37.4 °F 34.9 °F 26.6 °F 65% 29.75 in 10.0 mi NNW 3.5 mph - N/A   Partly Cloudy
12:55 AM 37.4 °F - 26.6 °F 65% 29.74 in 10.0 mi Calm Calm - N/A   Mostly Cloudy
1:15 AM 37.4 °F - 26.6 °F 65% 29.73 in 10.0 mi Calm Calm - N/A   Mostly Cloudy
1:35 AM 37.4 °F - 26.6 °F 65% 29.73 in 10.0 mi Calm Calm - N/A   Overcast
1:55 AM 35.6 °F - 28.4 °F 75% 29.72 in 10.0 mi Calm Calm - N/A   Overcast
2:15 AM 35.6 °F - 28.4 °F 75% 29.69 in 10.0 mi Calm Calm - N/A   Overcast
2:35 AM 35.6 °F - 28.4 °F 75% 29.68 in 10.0 mi Calm Calm - N/A   Overcast
2:55 AM 35.6 °F - 28.4 °F 75% 29.67 in 10.0 mi Calm Calm - N/A   Overcast
3:15 AM 35.6 °F - 28.4 °F 75% 29.66 in 10.0 mi Calm Calm - N/A   Overcast
3:35 AM 35.6 °F 32.8 °F 28.4 °F 75% 29.67 in 10.0 mi SSE 3.5 mph - N/A   Overcast
3:55 AM 35.6 °F 30.7 °F 28.4 °F 75% 29.67 in 10.0 mi North 5.8 mph - N/A   Overcast
4:15 AM 35.6 °F 32.8 °F 28.4 °F 75% 29.64 in 10.0 mi West 3.5 mph - N/A   Overcast
4:35 AM 37.4 °F 33.8 °F 28.4 °F 70% 29.64 in 10.0 mi NE 4.6 mph - N/A   Overcast
4:55 AM 37.4 °F 32.8 °F 26.6 °F 65% 29.62 in 10.0 mi SSE 5.8 mph - N/A   Overcast
5:15 AM 35.6 °F 31.7 °F 28.4 °F 75% 29.62 in 10.0 mi ESE 4.6 mph - N/A   Overcast
5:35 AM 35.6 °F - 30.2 °F 81% 29.61 in 10.0 mi Calm Calm - N/A   Overcast
5:55 AM 37.4 °F - 28.4 °F 70% 29.61 in 10.0 mi Calm Calm - N/A   Overcast
6:15 AM 37.4 °F 34.9 °F 28.4 °F 70% 29.62 in 10.0 mi SSW 3.5 mph - N/A   Overcast
6:35 AM 37.4 °F - 26.6 °F 65% 29.60 in 10.0 mi Calm Calm - N/A   Mostly Cloudy
6:55 AM 37.4 °F - 28.4 °F 70% 29.60 in 10.0 mi Calm Calm - N/A   Mostly Cloudy
7:15 AM 35.6 °F 30.7 °F 30.2 °F 81% 29.59 in 5.0 mi SW 5.8 mph - N/A Snow Light Snow
7:35 AM 35.6 °F - 32.0 °F 87% 29.60 in 9.0 mi Calm Calm - N/A   Mostly Cloudy
7:55 AM 32.0 °F - 32.0 °F 100% 29.60 in 1.0 mi Calm Calm - N/A Snow Light Snow
8:15 AM 32.0 °F - 32.0 °F 100% 29.61 in - Calm Calm - N/A Snow Heavy Snow
8:35 AM 32.0 °F 26.4 °F 32.0 °F 100% 29.66 in - South 5.8 mph - N/A Snow Heavy Snow
8:55 AM 32.0 °F - 32.0 °F 100% 29.68 in - Calm Calm - N/A Snow Heavy Snow
9:15 AM 32.0 °F 28.7 °F 32.0 °F 100% 29.62 in 1.0 mi NW 3.5 mph - N/A Snow Light Snow
9:35 AM 33.8 °F 28.6 °F 32.0 °F 93% 29.60 in 10.0 mi East 5.8 mph - N/A Rain Light Rain
9:55 AM 35.6 °F 32.8 °F 32.0 °F 87% 29.58 in 10.0 mi West 3.5 mph - N/A   Mostly Cloudy
10:15 AM 37.4 °F 32.1 °F 33.8 °F 87% 29.59 in 10.0 mi East 6.9 mph - N/A   Scattered Clouds
10:35 AM 37.4 °F 28.9 °F 35.6 °F 93% 29.57 in 10.0 mi East 13.8 mph - N/A   Scattered Clouds
10:55 AM 39.2 °F 31.2 °F 37.4 °F 93% 29.56 in 10.0 mi East 13.8 mph 19.6 mph N/A   Overcast
11:15 AM 39.2 °F 31.2 °F 37.4 °F 93% 29.55 in 10.0 mi East 13.8 mph 18.4 mph N/A   Overcast
11:35 AM 41.0 °F 33.9 °F 37.4 °F 87% 29.55 in 10.0 mi East 12.7 mph 17.3 mph N/A   Overcast
11:55 AM 41.0 °F 34.3 °F 37.4 °F 87% 29.52 in 10.0 mi East 11.5 mph 16.1 mph N/A   Overcast
12:15 PM 42.8 °F 40.1 °F 37.4 °F 81% 29.52 in 10.0 mi East 4.6 mph - N/A   Overcast
12:35 PM 42.8 °F 41.1 °F 37.4 °F 81% 29.51 in 10.0 mi SSE 3.5 mph - N/A   Overcast
12:55 PM 44.6 °F 40.2 °F 37.4 °F 76% 29.51 in 10.0 mi East 8.1 mph - N/A   Overcast
1:15 PM 44.6 °F 41.4 °F 37.4 °F 76% 29.50 in 10.0 mi East 5.8 mph - N/A   Overcast
1:35 PM 44.6 °F 42.2 °F 37.4 °F 76% 29.48 in 10.0 mi SE 4.6 mph - N/A   Mostly Cloudy
1:55 PM 44.6 °F 42.2 °F 37.4 °F 76% 29.47 in 10.0 mi SSW 4.6 mph - N/A   Mostly Cloudy
2:15 PM 44.6 °F 42.2 °F 37.4 °F 76% 29.45 in 10.0 mi South 4.6 mph - N/A   Overcast
2:35 PM 44.6 °F 40.7 °F 39.2 °F 81% 29.44 in 10.0 mi East 6.9 mph - N/A   Overcast
2:55 PM 44.6 °F 40.2 °F 39.2 °F 81% 29.44 in 10.0 mi East 8.1 mph - N/A   Overcast
3:15 PM 42.8 °F 39.3 °F 39.2 °F 87% 29.46 in 4.0 mi South 5.8 mph - N/A Rain Light Rain
3:35 PM 41.0 °F 38.0 °F 39.2 °F 93% 29.47 in 3.0 mi SSW 4.6 mph - N/A Rain Light Rain
3:55 PM 39.2 °F 35.9 °F 37.4 °F 93% 29.45 in 4.0 mi SSW 4.6 mph - N/A   Scattered Clouds
4:15 PM 39.2 °F 33.6 °F 35.6 °F 87% 29.48 in 8.0 mi South 8.1 mph - N/A Rain Light Rain
4:35 PM 39.2 °F - 35.6 °F 87% 29.46 in 9.0 mi Calm Calm - N/A   Mostly Cloudy
4:55 PM 39.2 °F 35.0 °F 37.4 °F 93% 29.45 in 10.0 mi South 5.8 mph - N/A   Mostly Cloudy
5:15 PM 39.2 °F 34.2 °F 35.6 °F 87% 29.46 in 10.0 mi South 6.9 mph - N/A   Mostly Cloudy
5:35 PM 39.2 °F 33.0 °F 35.6 °F 87% 29.46 in 10.0 mi South 9.2 mph - N/A   Mostly Cloudy
5:55 PM 37.4 °F 33.8 °F 35.6 °F 93% 29.46 in 10.0 mi South 4.6 mph - N/A   Overcast
6:15 PM 37.4 °F 33.8 °F 35.6 °F 93% 29.45 in 10.0 mi SSE 4.6 mph - N/A   Overcast
6:35 PM 37.4 °F - 35.6 °F 93% 29.44 in 10.0 mi Calm Calm - N/A   Mostly Cloudy
6:55 PM 37.4 °F - 35.6 °F 93% 29.45 in 10.0 mi Calm Calm - N/A   Overcast
7:15 PM 37.4 °F - 35.6 °F 93% 29.45 in 10.0 mi Calm Calm - N/A   Partly Cloudy
7:35 PM 37.4 °F - 35.6 °F 93% 29.46 in 10.0 mi Calm Calm - N/A   Partly Cloudy
7:55 PM 35.6 °F - 35.6 °F 100% 29.46 in 9.0 mi Calm Calm - N/A   Scattered Clouds
8:15 PM 35.6 °F - 35.6 °F 100% 29.47 in 10.0 mi Calm Calm - N/A   Scattered Clouds
8:35 PM 33.8 °F 29.6 °F 32.0 °F 93% 29.47 in 8.0 mi NNW 4.6 mph - N/A   Scattered Clouds
8:55 PM 35.6 °F - 33.8 °F 93% 29.48 in 10.0 mi Calm Calm - N/A   Mostly Cloudy
9:15 PM 33.8 °F - 32.0 °F 93% 29.48 in 8.0 mi Calm Calm - N/A   Overcast
9:35 PM 35.6 °F - 33.8 °F 93% 29.49 in 5.0 mi Calm Calm - N/A   Overcast
9:55 PM 35.6 °F - 33.8 °F 93% 29.49 in 9.0 mi Calm Calm - N/A   Overcast
10:15 PM 35.6 °F - 33.8 °F 93% 29.49 in 9.0 mi Calm Calm - N/A   Overcast
10:35 PM 35.6 °F - 33.8 °F 93% 29.50 in 10.0 mi Calm Calm - N/A   Mostly Cloudy
10:55 PM 33.8 °F - 32.0 °F 93% 29.51 in 3.0 mi Calm Calm - N/A   Mostly Cloudy
11:15 PM 33.8 °F - 32.0 °F 93% 29.51 in 5.0 mi Calm Calm - N/A   Mostly Cloudy
11:35 PM 35.6 °F 32.8 °F 32.0 °F 87% 29.52 in 10.0 mi ESE 3.5 mph - N/A   Mostly Cloudy
11:55 PM 35.6 °F - 33.8 °F 93% 29.52 in 10.0 mi Calm Calm - N/A   Overcast